Location: Avon School (historical)
(37.7514°N, 90.2201°W)
Time: 12:55:11
(UTC+00:00)

Transit 2A Rocket - Pass Details

Date: 19 December 2025
Orbit: 581 x 903 km, 66.7° (Epoch: 13 January)

Event Time Altitude Azimuth Distance (km) Brightness Sun altitude
Rises 10:58:09 0° 152° (SSE) 3,241 8.8 -25.5°
Reaches altitude 10° 11:02:09 10° 122° (ESE) 2,398 8.5 -24.7°
Maximum altitude 11:04:09 12° 100° (E) 2,296 8.5 -24.4°
Drops below altitude 10° 11:06:12 10° 79° (E) 2,472 8.5 -24.0°
Sets 11:10:28 0° 51° (NE) 3,472 8.9 -23.1°
